Location: San Martino di Castrozza
(46.2667°N, 11.8000°E)
Time: 03:44:47
(UTC+00:00)

USA 234 - Pass Details

Date: 23 April 2021
Orbit: 1102 x 1105 km, 123.0° (Epoch: 18 April)

Event Time Altitude Azimuth Distance (km) Brightness Sun altitude
Rises 01:09:44 0° 54° (NE) 3,927 7.3 -25.4°
Reaches altitude 10° 01:12:24 10° 62° (ENE) 2,966 6.3 -25.2°
Maximum altitude 01:18:33 42° 132° (SE) 1,518 3.9 -24.6°
Enters shadow 01:20:19 35° 168° (SSE) 1,686 3.9 -24.4°
